When you browse on this site, cookies collect data to enhance your experience and personalize the content and advertising you see.
Visit our Privacy Policy to learn more. By continuing to use the site, you agree to this use of cookies and data.
  • In Hungary
  • List of Countries
  • For 7 days
  • Water Temperature
  • Satellite Maps
  • Weather Map
  • News
  • Weather Widgets
  • user-avatar
    Login

    Hourly Weather Neuquén

    Today, 20 March, Wednesday

    Time Temperature Precipitation Wind Pressure Humidity
    00:00 +13°C° 0 mm 1 mps 741 mmHg 25%
    01:00 +13°C° 0 mm 1 mps 741 mmHg 27%
    02:00 +12°C° 0 mm 1 mps 741 mmHg 27%
    03:00 +12°C° 0 mm 1 mps 741 mmHg 27%
    04:00 +12°C° 0 mm 1 mps 740 mmHg 27%
    05:00 +13°C° 0 mm 2 mps 741 mmHg 27%
    06:00 +14°C° 0 mm 2 mps 741 mmHg 27%
    07:00 +14°C° 0 mm 3 mps 741 mmHg 26%
    08:00 +15°C° 0 mm 4 mps 741 mmHg 24%
    09:00 +18°C° 0 mm 4 mps 741 mmHg 21%
    10:00 +20°C° 0 mm 5 mps 741 mmHg 19%
    11:00 +20°C° 0 mm 5 mps 740 mmHg 18%
    12:00 +21°C° 0 mm 5 mps 740 mmHg 17%
    13:00 +22°C° 0 mm 6 mps 739 mmHg 15%
    14:00 +22°C° 0 mm 6 mps 739 mmHg 15%
    15:00 +23°C° 0 mm 6 mps 738 mmHg 15%
    16:00 +23°C° 0 mm 6 mps 738 mmHg 15%
    17:00 +22°C° 0 mm 5 mps 738 mmHg 16%
    18:00 +20°C° 0 mm 5 mps 738 mmHg 18%
    19:00 +19°C° 0 mm 5 mps 737 mmHg 19%
    20:00 +19°C° 0 mm 5 mps 737 mmHg 21%
    21:00 +17°C° 0 mm 5 mps 737 mmHg 22%
    22:00 +17°C° 0 mm 5 mps 737 mmHg 23%
    23:00 +17°C° 0 mm 5 mps 737 mmHg 26%

    Tomorrow, 21 March, Thursday

    Time Temperature Precipitation Wind Pressure Humidity
    00:00 +16°C° 0 mm 6 mps 736 mmHg 29%
    01:00 +16°C° 0 mm 6 mps 736 mmHg 32%
    02:00 +16°C° 0 mm 6 mps 735 mmHg 33%
    03:00 +16°C° 0 mm 6 mps 735 mmHg 34%
    04:00 +15°C° 0 mm 6 mps 734 mmHg 34%
    05:00 +16°C° 0 mm 6 mps 734 mmHg 37%
    06:00 +16°C° 0 mm 7 mps 734 mmHg 39%
    07:00 +16°C° 0 mm 7 mps 734 mmHg 42%
    08:00 +18°C° 0 mm 7 mps 734 mmHg 39%
    09:00 +21°C° 0 mm 7 mps 734 mmHg 36%
    10:00 +23°C° 0 mm 7 mps 734 mmHg 33%
    11:00 +24°C° 0 mm 6 mps 733 mmHg 29%
    12:00 +26°C° 0 mm 5 mps 733 mmHg 26%
    13:00 +27°C° 0 mm 4 mps 733 mmHg 22%
    14:00 +27°C° 0 mm 4 mps 732 mmHg 20%
    15:00 +27°C° 0 mm 3 mps 732 mmHg 19%
    16:00 +28°C° 0 mm 3 mps 731 mmHg 17%
    17:00 +26°C° 0 mm 3 mps 731 mmHg 18%
    18:00 +25°C° 0 mm 3 mps 731 mmHg 19%
    19:00 +24°C° 0 mm 3 mps 732 mmHg 20%
    20:00 +22°C° 0 mm 4 mps 732 mmHg 24%
    21:00 +22°C° 0 mm 6 mps 733 mmHg 27%
    22:00 +22°C° 0 mm 8 mps 733 mmHg 30%
    23:00 +21°C° 0 mm 8 mps 733 mmHg 35%

    Day after tomorrow, 22 March, Friday

    Time Temperature Precipitation Wind Pressure Humidity
    00:00 +20°C° 0 mm 8 mps 733 mmHg 39%
    01:00 +18°C° 0 mm 8 mps 733 mmHg 44%
    02:00 +17°C° 0 mm 7 mps 733 mmHg 46%
    03:00 +17°C° 0 mm 7 mps 733 mmHg 47%
    04:00 +16°C° 0 mm 7 mps 733 mmHg 49%
    05:00 +17°C° 0 mm 7 mps 733 mmHg 47%
    06:00 +17°C° 0 mm 6 mps 733 mmHg 45%
    07:00 +19°C° 0 mm 6 mps 734 mmHg 43%
    08:00 +21°C° 0 mm 6 mps 734 mmHg 38%
    09:00 +23°C° 0 mm 5 mps 734 mmHg 33%
    10:00 +25°C° 0 mm 4 mps 734 mmHg 27%
    11:00 +26°C° 0 mm 4 mps 734 mmHg 25%
    12:00 +27°C° 0 mm 4 mps 733 mmHg 22%
    13:00 +28°C° 0 mm 4 mps 733 mmHg 20%
    14:00 +28°C° 0 mm 4 mps 732 mmHg 18%
    15:00 +28°C° 0 mm 4 mps 731 mmHg 17%
    16:00 +29°C° 0 mm 4 mps 731 mmHg 15%
    17:00 +27°C° 0 mm 3 mps 731 mmHg 17%
    18:00 +26°C° 0 mm 2 mps 731 mmHg 18%
    19:00 +24°C° 0 mm 1 mps 731 mmHg 20%
    20:00 +24°C° 0 mm 2 mps 731 mmHg 20%
    21:00 +24°C° 0 mm 3 mps 731 mmHg 20%
    22:00 +23°C° 0 mm 5 mps 732 mmHg 20%
    23:00 +23°C° 0 mm 6 mps 732 mmHg 27%

    23 March, Saturday

    Time Temperature Precipitation Wind Pressure Humidity
    00:00 +22°C° 0 mm 7 mps 731 mmHg 33%
    01:00 +21°C° 0 mm 8 mps 731 mmHg 40%
    02:00 +21°C° 0 mm 8 mps 731 mmHg 42%
    03:00 +21°C° 0 mm 8 mps 731 mmHg 44%
    04:00 +20°C° 0 mm 7 mps 731 mmHg 46%
    05:00 +19°C° 0 mm 9 mps 732 mmHg 46%
    06:00 +19°C° 0 mm 10 mps 732 mmHg 46%
    07:00 +19°C° 0 mm 11 mps 732 mmHg 46%
    08:00 +22°C° 0 mm 11 mps 733 mmHg 38%
    09:00 +23°C° 0 mm 11 mps 733 mmHg 30%
    10:00 +24°C° 0 mm 12 mps 733 mmHg 22%
    11:00 +24°C° 0 mm 11 mps 734 mmHg 21%
    12:00 +26°C° 0 mm 10 mps 734 mmHg 20%
    13:00 +26°C° 0 mm 9 mps 734 mmHg 18%
    14:00 +26°C° 0 mm 9 mps 734 mmHg 18%
    15:00 +26°C° 0 mm 8 mps 734 mmHg 18%
    16:00 +26°C° 0 mm 8 mps 735 mmHg 17%
    17:00 +24°C° 0 mm 7 mps 735 mmHg 20%
    18:00 +22°C° 0 mm 6 mps 736 mmHg 23%
    19:00 +21°C° 0 mm 5 mps 737 mmHg 26%
    20:00 +20°C° 0 mm 6 mps 737 mmHg 31%
    21:00 +19°C° 0 mm 6 mps 738 mmHg 36%
    22:00 +17°C° 0 mm 6 mps 739 mmHg 42%
    23:00 +16°C° 0 mm 5 mps 739 mmHg 45%

    24 March, Sunday

    Time Temperature Precipitation Wind Pressure Humidity
    00:00 +17°C° 0 mm 4 mps 739 mmHg 48%
    01:00 +16°C° 0 mm 2 mps 739 mmHg 51%
    02:00 +15°C° 0 mm 2 mps 739 mmHg 53%
    03:00 +14°C° 0 mm 1 mps 739 mmHg 55%
    04:00 +14°C° 0 mm 1 mps 739 mmHg 58%
    05:00 +14°C° 0 mm 1 mps 739 mmHg 55%
    06:00 +15°C° 0 mm 1 mps 739 mmHg 53%
    07:00 +16°C° 0 mm 1 mps 739 mmHg 51%
    08:00 +18°C° 0 mm 1 mps 739 mmHg 47%
    09:00 +19°C° 0 mm 1 mps 739 mmHg 44%
    10:00 +20°C° 0 mm 1 mps 739 mmHg 40%
    11:00 +21°C° 0 mm 1 mps 738 mmHg 37%
    12:00 +22°C° 0 mm 1 mps 737 mmHg 33%
    13:00 +23°C° 0 mm 1 mps 736 mmHg 30%
    14:00 +24°C° 0 mm 1 mps 736 mmHg 29%
    15:00 +24°C° 0 mm 1 mps 735 mmHg 27%
    16:00 +24°C° 0 mm 1 mps 735 mmHg 25%
    17:00 +24°C° 0 mm 1 mps 735 mmHg 27%
    18:00 +23°C° 0 mm 1 mps 735 mmHg 29%
    19:00 +21°C° 0 mm 2 mps 735 mmHg 30%
    20:00 +20°C° 0 mm 2 mps 735 mmHg 31%
    21:00 +20°C° 0 mm 2 mps 735 mmHg 31%
    22:00 +20°C° 0 mm 2 mps 735 mmHg 31%
    23:00 +19°C° 0 mm 2 mps 735 mmHg 32%

    25 March, Monday

    Time Temperature Precipitation Wind Pressure Humidity
    00:00 +19°C° 0 mm 2 mps 735 mmHg 34%
    01:00 +18°C° 0 mm 2 mps 735 mmHg 35%
    02:00 +18°C° 0 mm 2 mps 734 mmHg 37%
    03:00 +18°C° 0 mm 1 mps 734 mmHg 38%
    04:00 +16°C° 0 mm 1 mps 734 mmHg 40%
    05:00 +18°C° 0 mm 1 mps 735 mmHg 38%
    06:00 +18°C° 0 mm 2 mps 735 mmHg 36%
    07:00 +19°C° 0 mm 2 mps 735 mmHg 34%
    08:00 +20°C° 0 mm 2 mps 736 mmHg 31%
    09:00 +21°C° 0 mm 3 mps 736 mmHg 29%
    10:00 +24°C° 0 mm 3 mps 736 mmHg 26%
    11:00 +25°C° 0 mm 4 mps 736 mmHg 25%
    12:00 +26°C° 0 mm 4 mps 736 mmHg 23%
    13:00 +27°C° 0 mm 4 mps 736 mmHg 21%
    14:00 +27°C° 0 mm 5 mps 736 mmHg 21%
    15:00 +27°C° 0 mm 6 mps 736 mmHg 22%
    16:00 +27°C° 0 mm 6 mps 736 mmHg 22%
    17:00 +24°C° 0 mm 7 mps 736 mmHg 26%
    18:00 +23°C° 0 mm 8 mps 737 mmHg 30%
    19:00 +22°C° 0 mm 9 mps 738 mmHg 34%
    20:00 +21°C° 0 mm 9 mps 739 mmHg 38%
    21:00 +19°C° 0 mm 10 mps 739 mmHg 43%
    22:00 +17°C° 0 mm 10 mps 740 mmHg 48%
    23:00 +17°C° 0 mm 10 mps 741 mmHg 53%
    Show more